TAP212 LPPR-LPMA

Flight info

Callsign TAP212
Flight time 1h 50m
Altitude 35000
Route ASMOV DCT DIRMA DCT VABEM DCT LIDRO
Aircraft A320/M-SDE3FGHIRWY/LB1

Departure

Time 2026-05-04 19:26
Airport Francisco de Sá Carneiro Airport (LPPR)

Arrival

Time 2026-05-04 21:16
Airport Cristiano Ronaldo International Airport (LPMA)
Time Latitude Longitude Altitude Speed Heading
2026-05-04 18:51 41.23683 -8.67257 258 ft 0 kts 83°
2026-05-04 19:11 41.23682 -8.67276 258 ft 4 kts 83°
2026-05-04 19:11 41.23679 -8.67311 249 ft 2 kts 83°
2026-05-04 19:12 41.23679 -8.67339 258 ft 4 kts 115°
2026-05-04 19:12 41.23712 -8.67373 258 ft 0 kts 139°
2026-05-04 19:14 41.23701 -8.67360 258 ft 4 kts 139°
2026-05-04 19:15 41.23662 -8.67337 258 ft 11 kts 164°
2026-05-04 19:15 41.23617 -8.67328 259 ft 5 kts 181°
2026-05-04 19:15 41.23595 -8.67333 259 ft 0 kts 199°
2026-05-04 19:16 41.23595 -8.67334 259 ft 0 kts 199°
2026-05-04 19:16 41.23558 -8.67360 261 ft 11 kts 210°
2026-05-04 19:17 41.23467 -8.67382 262 ft 17 kts 169°
2026-05-04 19:17 41.23358 -8.67375 263 ft 14 kts 207°
2026-05-04 19:17 41.23327 -8.67472 267 ft 10 kts 259°
2026-05-04 19:17 41.23317 -8.67544 271 ft 5 kts 258°
2026-05-04 19:18 41.23309 -8.67591 274 ft 8 kts 258°
2026-05-04 19:18 41.23307 -8.67607 274 ft 0 kts 259°
2026-05-04 19:21 41.23305 -8.67620 275 ft 4 kts 259°
2026-05-04 19:21 41.23298 -8.67667 277 ft 6 kts 259°
2026-05-04 19:22 41.23291 -8.67728 277 ft 3 kts 284°
2026-05-04 19:22 41.23307 -8.67737 279 ft 0 kts 351°
2026-05-04 19:25 41.23379 -8.67756 275 ft 41 kts 348°
2026-05-04 19:25 41.23900 -8.67890 254 ft 108 kts 349°
2026-05-04 19:25 41.24810 -8.68129 239 ft 156 kts 348°
2026-05-04 19:26 41.25880 -8.68408 887 ft 154 kts 347°
2026-05-04 19:26 41.26934 -8.68688 1533 ft 160 kts 346°
2026-05-04 19:26 41.28098 -8.68995 1873 ft 180 kts 346°
2026-05-04 19:26 41.29396 -8.69345 2220 ft 203 kts 347°
2026-05-04 19:27 41.30860 -8.69726 2580 ft 226 kts 347°
2026-05-04 19:27 41.32485 -8.70133 3040 ft 248 kts 346°
2026-05-04 19:27 41.34203 -8.70568 3877 ft 251 kts 346°
2026-05-04 19:27 41.35927 -8.70998 4813 ft 253 kts 347°
2026-05-04 19:28 41.37668 -8.71435 5643 ft 258 kts 347°
2026-05-04 19:28 41.39408 -8.72054 6443 ft 259 kts 331°
2026-05-04 19:28 41.40803 -8.73530 7256 ft 259 kts 308°
2026-05-04 19:28 41.41606 -8.75674 8031 ft 263 kts 284°
2026-05-04 19:29 41.41652 -8.78117 8834 ft 269 kts 262°
2026-05-04 19:29 41.41282 -8.80590 9616 ft 274 kts 261°
2026-05-04 19:29 41.40891 -8.83086 10372 ft 277 kts 258°
2026-05-04 19:29 41.40150 -8.85486 11018 ft 289 kts 242°
2026-05-04 19:30 41.38868 -8.87675 11286 ft 314 kts 227°
2026-05-04 19:30 41.37142 -8.89614 11632 ft 330 kts 223°
2026-05-04 19:30 41.35367 -8.91575 12319 ft 334 kts 223°
2026-05-04 19:30 41.33580 -8.93576 13035 ft 337 kts 224°
2026-05-04 19:31 41.31787 -8.95599 13759 ft 339 kts 224°
2026-05-04 19:31 41.29983 -8.97641 14395 ft 342 kts 224°
2026-05-04 19:31 41.28170 -8.99691 15030 ft 344 kts 225°
2026-05-04 19:31 41.26341 -9.01757 15666 ft 346 kts 225°
2026-05-04 19:32 41.24499 -9.03834 16301 ft 348 kts 225°
2026-05-04 19:32 41.22641 -9.05927 16926 ft 351 kts 225°
2026-05-04 19:32 41.20773 -9.08027 17551 ft 353 kts 225°
2026-05-04 19:32 41.18889 -9.10145 18115 ft 356 kts 226°
2026-05-04 19:33 41.16992 -9.12280 18646 ft 359 kts 226°
2026-05-04 19:33 41.15080 -9.14433 19171 ft 361 kts 226°
2026-05-04 19:33 41.13161 -9.16589 19705 ft 363 kts 226°
2026-05-04 19:33 41.11227 -9.18758 20234 ft 365 kts 226°
2026-05-04 19:34 41.09283 -9.20934 20757 ft 366 kts 226°
2026-05-04 19:34 41.07332 -9.23115 21268 ft 368 kts 226°
2026-05-04 19:34 41.05372 -9.25301 21771 ft 370 kts 226°
2026-05-04 19:34 41.03398 -9.27501 22269 ft 372 kts 226°
2026-05-04 19:35 41.01414 -9.29714 22768 ft 373 kts 227°
2026-05-04 19:35 40.99423 -9.31931 23246 ft 375 kts 227°
2026-05-04 19:35 40.97426 -9.34154 23712 ft 377 kts 227°
2026-05-04 19:35 40.95462 -9.36453 24060 ft 376 kts 229°
2026-05-04 19:36 40.93575 -9.38852 24459 ft 376 kts 231°
2026-05-04 19:36 40.91729 -9.41307 24853 ft 377 kts 232°
2026-05-04 19:36 40.89894 -9.43785 25237 ft 378 kts 232°
2026-05-04 19:36 40.88071 -9.46240 25589 ft 380 kts 232°
2026-05-04 19:37 40.86181 -9.48758 25937 ft 382 kts 232°
2026-05-04 19:37 40.84181 -9.51059 26286 ft 391 kts 224°
2026-05-04 19:37 40.81971 -9.53174 26627 ft 394 kts 224°
2026-05-04 19:37 40.79742 -9.55296 26986 ft 395 kts 224°
2026-05-04 19:38 40.77510 -9.57419 27334 ft 397 kts 224°
2026-05-04 19:38 40.75266 -9.59554 27685 ft 398 kts 224°
2026-05-04 19:38 40.72983 -9.61728 28001 ft 400 kts 224°
2026-05-04 19:38 40.71488 -9.63153 28236 ft 401 kts 224°
2026-05-04 19:39 40.69666 -9.64893 28532 ft 401 kts 224°
2026-05-04 19:39 40.67433 -9.67028 28882 ft 403 kts 224°
2026-05-04 19:39 40.65159 -9.69199 29207 ft 405 kts 224°
2026-05-04 19:39 40.62847 -9.71403 29528 ft 406 kts 224°
2026-05-04 19:40 40.60580 -9.73558 29835 ft 408 kts 224°
2026-05-04 19:40 40.58271 -9.75745 30134 ft 409 kts 225°
2026-05-04 19:40 40.55959 -9.77933 30382 ft 411 kts 224°
2026-05-04 19:40 40.53636 -9.80132 30610 ft 413 kts 224°
2026-05-04 19:41 40.52060 -9.81625 30771 ft 414 kts 224°
2026-05-04 19:41 40.49720 -9.83836 30965 ft 415 kts 225°
2026-05-04 19:41 40.47398 -9.86029 31198 ft 415 kts 225°
2026-05-04 19:41 40.45064 -9.88228 31589 ft 412 kts 225°
2026-05-04 19:42 40.42736 -9.90421 31935 ft 411 kts 225°
2026-05-04 19:42 40.40417 -9.92606 32260 ft 410 kts 225°
2026-05-04 19:42 40.38105 -9.94785 32574 ft 409 kts 225°
2026-05-04 19:42 40.35794 -9.96962 32897 ft 409 kts 225°
2026-05-04 19:43 40.33485 -9.99134 33212 ft 408 kts 224°
2026-05-04 19:43 40.31183 -10.01297 33521 ft 407 kts 224°
2026-05-04 19:43 40.28881 -10.03458 33835 ft 407 kts 224°
2026-05-04 19:43 40.26586 -10.05614 34139 ft 406 kts 224°
2026-05-04 19:44 40.24295 -10.07763 34393 ft 406 kts 224°
2026-05-04 19:44 40.21998 -10.09914 34625 ft 406 kts 224°
2026-05-04 19:44 40.19701 -10.12062 34830 ft 407 kts 224°
2026-05-04 19:44 40.17394 -10.14220 35028 ft 407 kts 224°
2026-05-04 19:45 40.15091 -10.16372 35114 ft 406 kts 224°
2026-05-04 19:45 40.10514 -10.20642 35135 ft 403 kts 224°
2026-05-04 19:46 40.05947 -10.24900 35142 ft 404 kts 224°
2026-05-04 19:46 40.01367 -10.29158 35096 ft 404 kts 224°
2026-05-04 19:47 39.96807 -10.33381 35144 ft 401 kts 224°
2026-05-04 19:47 39.92259 -10.37599 35147 ft 401 kts 224°
2026-05-04 19:48 39.87711 -10.41804 35150 ft 401 kts 224°
2026-05-04 19:48 39.83165 -10.45998 35149 ft 401 kts 224°
2026-05-04 19:49 39.78620 -10.50195 35146 ft 401 kts 224°
2026-05-04 19:49 39.74080 -10.54386 35119 ft 400 kts 224°
2026-05-04 19:50 39.69535 -10.58565 35123 ft 400 kts 224°
2026-05-04 19:50 39.64985 -10.62735 35131 ft 401 kts 224°
2026-05-04 19:51 39.60433 -10.66903 35141 ft 401 kts 224°
2026-05-04 19:51 39.55876 -10.71070 35144 ft 401 kts 224°
2026-05-04 19:52 39.51321 -10.75227 35123 ft 400 kts 223°
2026-05-04 19:52 39.46767 -10.79372 35134 ft 400 kts 223°
2026-05-04 19:53 39.42207 -10.83520 35142 ft 400 kts 223°
2026-05-04 19:53 39.37687 -10.87627 35151 ft 400 kts 223°
2026-05-04 19:54 39.33108 -10.91787 35158 ft 400 kts 223°
2026-05-04 19:54 39.28580 -10.95888 35103 ft 400 kts 222°
2026-05-04 19:55 39.24006 -11.00017 35147 ft 402 kts 222°
2026-05-04 19:55 39.19426 -11.04151 35154 ft 402 kts 222°
2026-05-04 19:56 39.14841 -11.08288 35156 ft 402 kts 222°
2026-05-04 19:56 39.10252 -11.12413 35158 ft 402 kts 222°
2026-05-04 19:57 39.05671 -11.16532 35163 ft 402 kts 222°
2026-05-04 19:57 39.01083 -11.20639 35145 ft 402 kts 222°
2026-05-04 19:58 38.96493 -11.24744 35151 ft 402 kts 222°
2026-05-04 19:58 38.91901 -11.28848 35156 ft 402 kts 222°
2026-05-04 19:59 38.87307 -11.32959 35144 ft 402 kts 221°
2026-05-04 19:59 38.82707 -11.37058 35149 ft 403 kts 221°
2026-05-04 20:00 38.78097 -11.41155 35147 ft 403 kts 220°
2026-05-04 20:00 38.73473 -11.45259 35157 ft 404 kts 221°
2026-05-04 20:01 38.68854 -11.49359 35169 ft 404 kts 220°
2026-05-04 20:01 38.64224 -11.53452 35167 ft 404 kts 220°
2026-05-04 20:02 38.59600 -11.57543 35169 ft 404 kts 221°
2026-05-04 20:02 38.54976 -11.61636 35172 ft 404 kts 220°
2026-05-04 20:03 38.50345 -11.65708 35152 ft 404 kts 220°
2026-05-04 20:03 38.45717 -11.69779 35158 ft 404 kts 220°
2026-05-04 20:04 38.41092 -11.73849 35167 ft 404 kts 220°
2026-05-04 20:04 38.36465 -11.77916 35172 ft 404 kts 220°
2026-05-04 20:05 38.31835 -11.81970 35171 ft 404 kts 220°
2026-05-04 20:05 38.27200 -11.86013 35158 ft 404 kts 220°
2026-05-04 20:06 38.22565 -11.90041 35168 ft 403 kts 220°
2026-05-04 20:06 38.17951 -11.94066 35176 ft 402 kts 220°
2026-05-04 20:07 38.13334 -11.98089 35179 ft 402 kts 220°
2026-05-04 20:07 38.08752 -12.02072 35186 ft 402 kts 220°
2026-05-04 20:08 38.04137 -12.06071 35175 ft 401 kts 220°
2026-05-04 20:08 37.99532 -12.10062 35179 ft 400 kts 221°
2026-05-04 20:09 37.94940 -12.14036 35194 ft 399 kts 221°
2026-05-04 20:09 37.90357 -12.17990 35196 ft 398 kts 221°
2026-05-04 20:10 37.85781 -12.21931 35194 ft 398 kts 221°
2026-05-04 20:10 37.81207 -12.25876 35193 ft 397 kts 221°
2026-05-04 20:11 37.76637 -12.29808 35191 ft 397 kts 221°
2026-05-04 20:11 37.72064 -12.33731 35194 ft 397 kts 221°
2026-05-04 20:12 37.67493 -12.37639 35190 ft 397 kts 221°
2026-05-04 20:12 37.62920 -12.41552 35180 ft 397 kts 221°
2026-05-04 20:13 37.58346 -12.45454 35182 ft 397 kts 221°
2026-05-04 20:13 37.53774 -12.49357 35184 ft 397 kts 221°
2026-05-04 20:14 37.49202 -12.53248 35165 ft 397 kts 221°
2026-05-04 20:14 37.44632 -12.57133 35176 ft 396 kts 221°
2026-05-04 20:15 37.40063 -12.61016 35178 ft 396 kts 221°
2026-05-04 20:15 37.35495 -12.64893 35181 ft 396 kts 221°
2026-05-04 20:16 37.30920 -12.68763 35184 ft 396 kts 221°
2026-05-04 20:16 37.26350 -12.72623 35154 ft 396 kts 220°
2026-05-04 20:17 37.21774 -12.76485 35160 ft 396 kts 220°
2026-05-04 20:17 37.17216 -12.80332 35164 ft 396 kts 220°
2026-05-04 20:18 37.12639 -12.84193 35173 ft 396 kts 220°
2026-05-04 20:18 37.08090 -12.88009 35178 ft 396 kts 220°
2026-05-04 20:19 37.03504 -12.91848 35178 ft 396 kts 220°
2026-05-04 20:19 36.98890 -12.95712 35149 ft 396 kts 220°
2026-05-04 20:20 36.94311 -12.99546 35166 ft 396 kts 220°
2026-05-04 20:20 36.89765 -13.03347 35177 ft 396 kts 220°
2026-05-04 20:21 36.85185 -13.07163 35179 ft 396 kts 220°
2026-05-04 20:21 36.78318 -13.12882 35182 ft 396 kts 220°
2026-05-04 20:22 36.73737 -13.16687 35154 ft 396 kts 219°
2026-05-04 20:22 36.69157 -13.20489 35164 ft 396 kts 219°
2026-05-04 20:23 36.64572 -13.24290 35172 ft 396 kts 219°
2026-05-04 20:23 36.59984 -13.28083 35178 ft 396 kts 219°
2026-05-04 20:24 36.55400 -13.31875 35185 ft 396 kts 219°
2026-05-04 20:24 36.50944 -13.35848 35188 ft 393 kts 223°
2026-05-04 20:25 36.46655 -13.40041 35176 ft 392 kts 224°
2026-05-04 20:25 36.42366 -13.44238 35176 ft 393 kts 223°
2026-05-04 20:26 36.38032 -13.48377 35189 ft 393 kts 223°
2026-05-04 20:26 36.33678 -13.52479 35187 ft 393 kts 222°
2026-05-04 20:27 36.30060 -13.55891 35185 ft 393 kts 223°
2026-05-04 20:27 36.25713 -13.60002 35184 ft 393 kts 223°
2026-05-04 20:28 36.20658 -13.64784 35198 ft 393 kts 223°
2026-05-04 20:28 36.17015 -13.68223 35182 ft 393 kts 222°
2026-05-04 20:29 36.12666 -13.72320 35189 ft 393 kts 222°
2026-05-04 20:29 36.08319 -13.76410 35189 ft 393 kts 222°
2026-05-04 20:30 36.03965 -13.80500 35195 ft 393 kts 222°
2026-05-04 20:30 35.99610 -13.84573 35198 ft 393 kts 222°
2026-05-04 20:31 35.95263 -13.88647 35188 ft 393 kts 221°
2026-05-04 20:31 35.90903 -13.92731 35172 ft 394 kts 221°
2026-05-04 20:32 35.86532 -13.96806 35179 ft 394 kts 221°
2026-05-04 20:32 35.82152 -14.00884 35181 ft 395 kts 221°
2026-05-04 20:33 35.77770 -14.04958 35184 ft 395 kts 221°
2026-05-04 20:33 35.73390 -14.09040 35187 ft 395 kts 221°
2026-05-04 20:34 35.69002 -14.13114 35192 ft 395 kts 221°
2026-05-04 20:34 35.64614 -14.17191 35176 ft 395 kts 221°
2026-05-04 20:35 35.60213 -14.21264 35178 ft 396 kts 221°
2026-05-04 20:35 35.55801 -14.25339 35180 ft 397 kts 221°
2026-05-04 20:36 35.51378 -14.29416 35184 ft 398 kts 221°
2026-05-04 20:36 35.47019 -14.33442 35183 ft 398 kts 221°
2026-05-04 20:37 35.42645 -14.37462 35192 ft 398 kts 221°
2026-05-04 20:37 35.38213 -14.41541 35187 ft 398 kts 221°
2026-05-04 20:38 35.33786 -14.45612 35176 ft 398 kts 221°
2026-05-04 20:38 35.29351 -14.49679 35184 ft 398 kts 221°
2026-05-04 20:39 35.24909 -14.53746 35189 ft 398 kts 221°
2026-05-04 20:39 35.20475 -14.57800 35188 ft 398 kts 221°
2026-05-04 20:40 35.16031 -14.61854 35190 ft 398 kts 220°
2026-05-04 20:40 35.11589 -14.65898 35192 ft 398 kts 221°
2026-05-04 20:41 35.07148 -14.69941 35190 ft 398 kts 220°
2026-05-04 20:41 35.02700 -14.73970 35184 ft 399 kts 220°
2026-05-04 20:42 34.98245 -14.78007 35187 ft 398 kts 220°
2026-05-04 20:42 34.93804 -14.82043 35186 ft 398 kts 220°
2026-05-04 20:43 34.89352 -14.86076 35188 ft 398 kts 220°
2026-05-04 20:43 34.84908 -14.90099 35188 ft 398 kts 220°
2026-05-04 20:44 34.80460 -14.94122 35169 ft 398 kts 220°
2026-05-04 20:44 34.76011 -14.98138 35171 ft 398 kts 220°
2026-05-04 20:45 34.71560 -15.02152 35178 ft 398 kts 220°
2026-05-04 20:45 34.67113 -15.06149 35177 ft 398 kts 220°
2026-05-04 20:46 34.62653 -15.10143 35178 ft 398 kts 220°
2026-05-04 20:46 34.58201 -15.14128 35180 ft 398 kts 220°
2026-05-04 20:47 34.53776 -15.18095 35166 ft 398 kts 220°
2026-05-04 20:47 34.49291 -15.22112 35164 ft 399 kts 220°
2026-05-04 20:48 34.44828 -15.26105 35163 ft 399 kts 220°
2026-05-04 20:48 34.40384 -15.30072 35164 ft 399 kts 220°
2026-05-04 20:49 34.35880 -15.34082 35167 ft 400 kts 220°
2026-05-04 20:49 34.31395 -15.38067 35166 ft 400 kts 220°
2026-05-04 20:50 34.26912 -15.42047 35171 ft 400 kts 220°
2026-05-04 20:50 34.22425 -15.46025 34999 ft 399 kts 219°
2026-05-04 20:51 34.20201 -15.47997 34518 ft 395 kts 219°
2026-05-04 20:51 34.17987 -15.49961 34008 ft 393 kts 219°
2026-05-04 20:51 34.15794 -15.51906 33467 ft 390 kts 219°
2026-05-04 20:51 34.13609 -15.53839 32925 ft 388 kts 219°
2026-05-04 20:52 34.11435 -15.55753 32412 ft 385 kts 219°
2026-05-04 20:52 34.09278 -15.57648 31908 ft 383 kts 219°
2026-05-04 20:52 34.07135 -15.59535 31414 ft 380 kts 219°
2026-05-04 20:52 34.05036 -15.61391 30933 ft 378 kts 219°
2026-05-04 20:53 34.03691 -15.62582 30625 ft 377 kts 219°
2026-05-04 20:53 34.01585 -15.64443 30138 ft 374 kts 218°
2026-05-04 20:53 33.99459 -15.66313 29602 ft 372 kts 219°
2026-05-04 20:53 33.97408 -15.68114 29089 ft 369 kts 218°
2026-05-04 20:54 33.95339 -15.69934 28540 ft 367 kts 218°
2026-05-04 20:54 33.93286 -15.71739 28033 ft 365 kts 218°
2026-05-04 20:54 33.91243 -15.73535 27549 ft 362 kts 218°
2026-05-04 20:54 33.89219 -15.75316 27080 ft 359 kts 219°
2026-05-04 20:55 33.87213 -15.77081 26624 ft 356 kts 218°
2026-05-04 20:55 33.85219 -15.78832 26165 ft 354 kts 218°
2026-05-04 20:55 33.83237 -15.80570 25724 ft 351 kts 218°
2026-05-04 20:55 33.81269 -15.82289 25291 ft 348 kts 218°
2026-05-04 20:56 33.79314 -15.83997 24863 ft 346 kts 218°
2026-05-04 20:56 33.77380 -15.85685 24439 ft 343 kts 218°
2026-05-04 20:56 33.75453 -15.87369 24026 ft 341 kts 219°
2026-05-04 20:56 33.73539 -15.89043 23594 ft 339 kts 218°
2026-05-04 20:57 33.71641 -15.90702 23111 ft 337 kts 218°
2026-05-04 20:57 33.69754 -15.92353 22630 ft 335 kts 218°
2026-05-04 20:57 33.67870 -15.93999 22161 ft 334 kts 218°
2026-05-04 20:57 33.65988 -15.95616 21718 ft 332 kts 217°
2026-05-04 20:58 33.64066 -15.97151 21299 ft 331 kts 215°
2026-05-04 20:58 33.62133 -15.98625 20879 ft 329 kts 214°
2026-05-04 20:58 33.60199 -16.00073 20465 ft 327 kts 214°
2026-05-04 20:58 33.58279 -16.01510 20126 ft 323 kts 214°
2026-05-04 20:59 33.56389 -16.02933 19769 ft 320 kts 214°
2026-05-04 20:59 33.54515 -16.04357 19370 ft 318 kts 214°
2026-05-04 20:59 33.52648 -16.05785 18972 ft 317 kts 214°
2026-05-04 20:59 33.50795 -16.07205 18630 ft 315 kts 214°
2026-05-04 21:00 33.48960 -16.08607 18277 ft 312 kts 213°
2026-05-04 21:00 33.47131 -16.10004 17837 ft 312 kts 213°
2026-05-04 21:00 33.45302 -16.11400 17414 ft 311 kts 214°
2026-05-04 21:00 33.43491 -16.12784 17058 ft 308 kts 213°
2026-05-04 21:01 33.41691 -16.14158 16720 ft 305 kts 213°
2026-05-04 21:01 33.39920 -16.15508 16274 ft 307 kts 213°
2026-05-04 21:01 33.38108 -16.16889 15818 ft 309 kts 213°
2026-05-04 21:01 33.36292 -16.18272 15451 ft 309 kts 213°
2026-05-04 21:02 33.34484 -16.19650 15100 ft 307 kts 213°
2026-05-04 21:02 33.32695 -16.21012 14542 ft 305 kts 213°
2026-05-04 21:02 33.30902 -16.22378 14097 ft 305 kts 213°
2026-05-04 21:02 33.29121 -16.23736 13649 ft 303 kts 213°
2026-05-04 21:03 33.27358 -16.25081 13226 ft 299 kts 213°
2026-05-04 21:03 33.25603 -16.26416 12744 ft 298 kts 213°
2026-05-04 21:03 33.23858 -16.27739 12249 ft 297 kts 213°
2026-05-04 21:03 33.22124 -16.29051 11802 ft 294 kts 213°
2026-05-04 21:04 33.20410 -16.30348 11351 ft 290 kts 213°
2026-05-04 21:04 33.18713 -16.31636 10849 ft 288 kts 213°
2026-05-04 21:04 33.17025 -16.32918 10350 ft 287 kts 213°
2026-05-04 21:04 33.15346 -16.34192 9932 ft 283 kts 213°
2026-05-04 21:05 33.13703 -16.35435 9371 ft 278 kts 212°
2026-05-04 21:05 33.12071 -16.36669 8717 ft 278 kts 212°
2026-05-04 21:05 33.10437 -16.37904 8218 ft 277 kts 212°
2026-05-04 21:05 33.08812 -16.39134 7827 ft 276 kts 212°
2026-05-04 21:06 33.07197 -16.40356 7464 ft 274 kts 212°
2026-05-04 21:06 33.05591 -16.41571 7103 ft 272 kts 212°
2026-05-04 21:06 33.04002 -16.42772 6773 ft 270 kts 212°
2026-05-04 21:06 33.02423 -16.43964 6414 ft 268 kts 212°
2026-05-04 21:07 33.02002 -16.44281 6309 ft 267 kts 212°
2026-05-04 21:07 33.00434 -16.45464 5907 ft 266 kts 212°
2026-05-04 21:07 32.98873 -16.46640 5502 ft 265 kts 212°
2026-05-04 21:07 32.97319 -16.47810 5108 ft 264 kts 212°
2026-05-04 21:08 32.95768 -16.48977 4685 ft 263 kts 212°
2026-05-04 21:08 32.94223 -16.50143 4282 ft 262 kts 212°
2026-05-04 21:08 32.92729 -16.51327 3877 ft 261 kts 219°
2026-05-04 21:08 32.91378 -16.52756 3483 ft 259 kts 222°
2026-05-04 21:09 32.90024 -16.54210 3107 ft 257 kts 221°
2026-05-04 21:09 32.88722 -16.55600 3040 ft 249 kts 221°
2026-05-04 21:09 32.87445 -16.56958 3042 ft 240 kts 221°
2026-05-04 21:09 32.86221 -16.58260 3044 ft 239 kts 221°
2026-05-04 21:10 32.84943 -16.59517 3044 ft 238 kts 214°
2026-05-04 21:10 32.83581 -16.60637 3043 ft 238 kts 214°
2026-05-04 21:10 32.82239 -16.61744 3038 ft 225 kts 215°
2026-05-04 21:10 32.80978 -16.62788 3040 ft 222 kts 215°
2026-05-04 21:11 32.79711 -16.63840 3041 ft 222 kts 215°
2026-05-04 21:11 32.78449 -16.64888 3040 ft 222 kts 215°
2026-05-04 21:11 32.77183 -16.65937 3038 ft 221 kts 215°
2026-05-04 21:11 32.75890 -16.67008 2596 ft 231 kts 215°
2026-05-04 21:12 32.75020 -16.67732 2523 ft 223 kts 215°
2026-05-04 21:12 32.73752 -16.68790 2231 ft 222 kts 215°
2026-05-04 21:12 32.72075 -16.70201 1734 ft 224 kts 216°
2026-05-04 21:12 32.70883 -16.71264 1669 ft 208 kts 217°
2026-05-04 21:13 32.69747 -16.72233 1604 ft 192 kts 215°
2026-05-04 21:13 32.68708 -16.73100 1462 ft 175 kts 216°
2026-05-04 21:13 32.67759 -16.73902 1392 ft 160 kts 216°
2026-05-04 21:13 32.66882 -16.74670 1407 ft 155 kts 217°
2026-05-04 21:14 32.66302 -16.75185 1379 ft 153 kts 217°
2026-05-04 21:14 32.65467 -16.75965 1390 ft 152 kts 224°
2026-05-04 21:14 32.64847 -16.76942 1354 ft 146 kts 243°
2026-05-04 21:14 32.64587 -16.78087 1288 ft 144 kts 268°
2026-05-04 21:15 32.64811 -16.79233 1231 ft 144 kts 297°
2026-05-04 21:15 32.65488 -16.80087 1145 ft 145 kts 332°
2026-05-04 21:15 32.66450 -16.80458 1059 ft 147 kts 356°
2026-05-04 21:15 32.67418 -16.80149 818 ft 144 kts 33°
2026-05-04 21:16 32.68142 -16.79378 550 ft 141 kts 46°
2026-05-04 21:16 32.68829 -16.78566 296 ft 138 kts 45°
2026-05-04 21:16 32.69485 -16.77794 177 ft 118 kts 43°
2026-05-04 21:16 32.69858 -16.77365 176 ft 31 kts 44°
2026-05-04 21:17 32.69946 -16.77262 176 ft 17 kts 46°
2026-05-04 21:17 32.69921 -16.77179 176 ft 14 kts 176°
2026-05-04 21:17 32.69824 -16.77197 176 ft 14 kts 218°
2026-05-04 21:17 32.69760 -16.77275 176 ft 13 kts 226°
2026-05-04 21:18 32.69703 -16.77345 176 ft 11 kts 226°
2026-05-04 21:18 32.69655 -16.77404 176 ft 9 kts 227°
2026-05-04 21:18 32.69616 -16.77453 176 ft 7 kts 225°
2026-05-04 21:18 32.69562 -16.77521 176 ft 16 kts 227°
2026-05-04 21:19 32.69492 -16.77610 176 ft 13 kts 226°
2026-05-04 21:19 32.69433 -16.77681 176 ft 10 kts 225°
2026-05-04 21:19 32.69393 -16.77731 176 ft 4 kts 226°
2026-05-04 21:19 32.69392 -16.77732 176 ft 0 kts 226°
2026-05-04 21:20 32.69388 -16.77736 176 ft 1 kts 218°
2026-05-04 21:20 32.69378 -16.77738 176 ft 1 kts 185°
2026-05-04 21:21 32.69355 -16.77721 176 ft 3 kts 137°
2026-05-04 21:21 32.69346 -16.77710 176 ft 1 kts 137°
2026-05-04 21:21 32.69339 -16.77704 176 ft 1 kts 137°
2026-05-04 21:21 32.69337 -16.77701 176 ft 0 kts 137°
2026-05-04 21:22 32.69335 -16.77698 176 ft 0 kts 138°